| time (UTC) | temp F | wind direction | speed knots | gust knots | rain 1hr in | rain 24hr in | rain mn in | humidity % | barometer mb |
| 20260506094503 | 78 | 262 | 2.6 | 7.8 | 0.00 | 0.00 | 0.00 | 48 | 1014.8 |
| 20260506094003 | 78 | 227 | 2.6 | 7.8 | 0.00 | 0.00 | 0.00 | 47 | 1014.9 |
| 20260506093502 | 77 | 260 | 1.7 | 7.0 | 0.00 | 0.00 | 0.00 | 48 | 1014.9 |
| 20260506093003 | 77 | 225 | 1.7 | 6.1 | 0.00 | 0.00 | 0.00 | 46 | 1014.9 |
| 20260506092503 | 77 | 113 | 0.9 | 3.5 | 0.00 | 0.00 | 0.00 | 48 | 1014.9 |
| 20260506092002 | 77 | 306 | 1.7 | 4.3 | 0.00 | 0.00 | 0.00 | 46 | 1014.9 |
| 20260506091502 | 77 | 200 | 0.9 | 4.3 | 0.00 | 0.00 | 0.00 | 47 | 1015.0 |
| 20260506091003 | 77 | 172 | 0.9 | 3.5 | 0.00 | 0.00 | 0.00 | 46 | 1015.0 |
| 20260506090503 | 77 | 211 | 1.7 | 3.5 | 0.00 | 0.00 | 0.00 | 49 | 1015.0 |
| 20260506090003 | 76 | 254 | 1.7 | 6.1 | 0.00 | 0.00 | 0.00 | 50 | 1015.0 |
| 20260506085500 | 76 | 263 | 0.9 | 4.3 | 0.00 | 0.00 | 0.00 | 47 | 1015.0 |
| 20260506085003 | 76 | 234 | 1.7 | 6.1 | 0.00 | 0.00 | 0.00 | 46 | 1015.0 |
| 20260506084502 | 76 | 234 | 2.6 | 6.1 | 0.00 | 0.00 | 0.00 | 48 | 1015.1 |
| 20260506084000 | 76 | 202 | 2.6 | 5.2 | 0.00 | 0.00 | 0.00 | 50 | 1015.0 |
| 20260506083503 | 75 | 225 | 0.9 | 5.2 | 0.00 | 0.00 | 0.00 | 50 | 1015.0 |
| 20260506083003 | 75 | 225 | 0.9 | 2.6 | 0.00 | 0.00 | 0.00 | 51 | 1015.0 |
| 20260506082503 | 75 | 212 | 0.9 | 3.5 | 0.00 | 0.00 | 0.00 | 50 | 1015.0 |
| 20260506082000 | 74 | 203 | 0.9 | 3.5 | 0.00 | 0.00 | 0.00 | 53 | 1015.0 |
| 20260506081503 | 74 | 297 | 0.9 | 3.5 | 0.00 | 0.00 | 0.00 | 51 | 1015.0 |
| 20260506081003 | 73 | 253 | 0.9 | 2.6 | 0.00 | 0.00 | 0.00 | 51 | 1015.0 |
| 20260506080503 | 73 | 148 | 0.9 | 4.3 | 0.00 | 0.00 | 0.00 | 49 | 1014.9 |
| 20260506073503 | 70 | 229 | 0.9 | 2.6 | 0.00 | 0.00 | 0.00 | 58 | 1015.2 |
| 20260506073002 | 70 | 323 | 1.7 | 3.5 | 0.00 | 0.00 | 0.00 | 61 | 1015.2 |
| 20260506072503 | 69 | 221 | 1.7 | 3.5 | 0.00 | 0.00 | 0.00 | 61 | 1015.2 |
| 20260506072003 | 68 | 251 | 0.9 | 3.5 | 0.00 | 0.00 | 0.00 | 61 | 1015.3 |
| 20260506071503 | 68 | 192 | 0.9 | 2.6 | 0.00 | 0.00 | 0.00 | 60 | 1015.3 |
| 20260506071003 | 68 | 161 | 0.9 | 2.6 | 0.00 | 0.00 | 0.00 | 61 | 1015.3 |
| 20260506070503 | 67 | 253 | 0.9 | 3.5 | 0.00 | 0.00 | 0.00 | 64 | 1015.2 |
| 20260506062503 | 65 | 154 | 2.6 | 6.1 | 0.00 | 0.00 | 0.00 | 67 | 1015.4 |
| 20260506062003 | 64 | 150 | 1.7 | 6.1 | 0.00 | 0.00 | 0.00 | 67 | 1015.4 |
| 20260506061500 | 64 | 110 | 0.9 | 2.6 | 0.00 | 0.00 | 0.00 | 69 | 1015.4 |
| 20260506061001 | 63 | 238 | 0.9 | 2.6 | 0.00 | 0.00 | 0.00 | 69 | 1015.6 |
| 20260506060503 | 63 | 192 | 0.9 | 3.5 | 0.00 | 0.00 | 0.00 | 70 | 1015.4 |
| 20260506050503 | 61 | 85 | 2.6 | 4.3 | 0.00 | 0.00 | 0.00 | 69 | 1015.0 |
| 20260506045003 | 61 | 86 | 3.5 | 4.3 | 0.00 | 0.00 | 0.00 | 68 | 1015.2 |
| 20260506044503 | 60 | 82 | 3.5 | 5.2 | 0.00 | 0.00 | 0.00 | 68 | 1015.1 |
| 20260506044003 | 60 | 80 | 2.6 | 4.3 | 0.00 | 0.00 | 0.00 | 69 | 1015.2 |
| 20260506043503 | 60 | 77 | 2.6 | 3.5 | 0.00 | 0.00 | 0.00 | 68 | 1015.2 |
| 20260506042503 | 60 | 76 | 0.9 | 2.6 | 0.00 | 0.00 | 0.00 | 67 | 1014.9 |
| 20260506042000 | 60 | 76 | 1.7 | 2.6 | 0.00 | 0.00 | 0.00 | 67 | 1014.9 |
| 20260506041500 | 60 | 76 | 1.7 | 2.6 | 0.00 | 0.00 | 0.00 | 68 | 1014.9 |
| 20260506041003 | 60 | 76 | 1.7 | 3.5 | 0.00 | 0.00 | 0.00 | 68 | 1014.9 |
| 20260506040500 | 59 | 80 | 1.7 | 3.5 | 0.00 | 0.00 | 0.00 | 68 | 1015.0 |
| 20260506040004 | 59 | 64 | 0.9 | 3.5 | 0.00 | 0.00 | 0.00 | 69 | 1015.0 |
| 20260506035503 | 59 | 49 | 1.7 | 3.5 | 0.00 | 0.00 | 0.00 | 69 | 1015.0 |
| 20260506034503 | 59 | 88 | 1.7 | 3.5 | 0.00 | 0.00 | 0.00 | 68 | 1015.0 |
| 20260506034002 | 59 | 88 | 1.7 | 3.5 | 0.00 | 0.00 | 0.00 | 67 | 1015.0 |
| 20260506032503 | 59 | 74 | 2.6 | 4.3 | 0.00 | 0.00 | 0.00 | 68 | 1015.0 |
| 20260506031001 | 58 | 81 | 2.6 | 3.5 | 0.00 | 0.00 | 0.00 | 68 | 1015.0 |
| 20260506030500 | 58 | 77 | 2.6 | 3.5 | 0.00 | 0.00 | 0.00 | 68 | 1014.9 |
| 20260506030003 | 58 | 76 | 1.7 | 3.5 | 0.00 | 0.00 | 0.00 | 68 | 1015.0 |
| 20260506025500 | 58 | 75 | 1.7 | 2.6 | 0.00 | 0.00 | 0.00 | 68 | 1015.0 |
| 20260506024458 | 58 | 69 | 1.7 | 2.6 | 0.00 | 0.00 | 0.00 | 67 | 1014.8 |
| 20260506024000 | 58 | 80 | 1.7 | 2.6 | 0.00 | 0.00 | 0.00 | 67 | 1014.8 |
| 20260506023502 | 58 | 80 | 1.7 | 2.6 | 0.00 | 0.00 | 0.00 | 68 | 1014.9 |
| 20260506023000 | 58 | 80 | 1.7 | 2.6 | 0.00 | 0.00 | 0.00 | 68 | 1014.9 |
| 20260506022500 | 58 | 80 | 0.9 | 2.6 | 0.00 | 0.00 | 0.00 | 68 | 1014.8 |
| 20260506022000 | 58 | 80 | 0.9 | 2.6 | 0.00 | 0.00 | 0.00 | 69 | 1014.8 |
| 20260506021500 | 58 | 80 | 1.7 | 2.6 | 0.00 | 0.00 | 0.00 | 68 | 1014.7 |
| 20260506021000 | 58 | 80 | 1.7 | 2.6 | 0.00 | 0.00 | 0.00 | 68 | 1014.8 |
| 20260506020503 | 58 | 85 | 1.7 | 2.6 | 0.00 | 0.00 | 0.00 | 67 | 1014.8 |
| 20260506015957 | 58 | 98 | 1.7 | 2.6 | 0.00 | 0.00 | 0.00 | 67 | 1014.8 |
| 20260506015000 | 58 | 132 | 0.0 | 1.7 | 0.00 | 0.00 | 0.00 | 67 | 1014.8 |
| 20260506014459 | 58 | 132 | 0.0 | 1.7 | 0.00 | 0.00 | 0.00 | 68 | 1014.6 |
| 20260506014002 | 58 | 132 | 0.0 | 1.7 | 0.00 | 0.00 | 0.00 | 68 | 1014.7 |
| 20260506013500 | 58 | 132 | 0.0 | 0.9 | 0.00 | 0.00 | 0.00 | 68 | 1014.7 |
| 20260506013000 | 58 | 132 | 0.9 | 1.7 | 0.00 | 0.00 | 0.00 | 68 | 1014.6 |
| 20260506012503 | 58 | 132 | 0.9 | 1.7 | 0.00 | 0.00 | 0.00 | 68 | 1014.6 |
| 20260506012000 | 58 | 132 | 0.0 | 1.7 | 0.00 | 0.00 | 0.00 | 69 | 1014.5 |
| 20260506011502 | 58 | 132 | 0.9 | 1.7 | 0.00 | 0.00 | 0.00 | 67 | 1014.4 |
| 20260506011002 | 59 | 132 | 0.9 | 1.7 | 0.00 | 0.00 | 0.00 | 66 | 1014.3 |
| 20260506010500 | 59 | 149 | 0.0 | 1.7 | 0.00 | 0.00 | 0.00 | 66 | 1014.4 |
| 20260506005959 | 59 | 235 | 0.9 | 2.6 | 0.00 | 0.00 | 0.00 | 66 | 1014.4 |
| 20260506005000 | 59 | 227 | 1.7 | 2.6 | 0.00 | 0.00 | 0.00 | 66 | 1014.4 |
| 20260506004500 | 59 | 225 | 0.9 | 2.6 | 0.00 | 0.00 | 0.00 | 66 | 1014.2 |
| 20260506004000 | 59 | 229 | 0.9 | 2.6 | 0.00 | 0.00 | 0.00 | 67 | 1014.3 |
| 20260506003500 | 59 | 217 | 1.7 | 2.6 | 0.00 | 0.00 | 0.00 | 67 | 1014.3 |
| 20260506002959 | 59 | 164 | 1.7 | 4.3 | 0.00 | 0.00 | 0.00 | 66 | 1014.3 |
| 20260506002459 | 60 | 169 | 2.6 | 4.3 | 0.00 | 0.00 | 0.00 | 67 | 1014.4 |
| 20260506001959 | 60 | 139 | 1.7 | 3.5 | 0.00 | 0.00 | 0.00 | 67 | 1014.4 |
| 20260506001500 | 60 | 138 | 0.9 | 2.6 | 0.00 | 0.00 | 0.00 | 68 | 1014.3 |
| 20260506000959 | 60 | 148 | 0.9 | 2.6 | 0.00 | 0.00 | 0.00 | 67 | 1014.4 |
| 20260506000459 | 60 | 135 | 0.9 | 1.7 | 0.00 | 0.00 | 0.00 | 67 | 1014.3 |
| 20260506000003 | 60 | 148 | 0.0 | 1.7 | 0.00 | 0.00 | 0.00 | 67 | 1014.3 |
| 20260505235500 | 60 | 199 | 0.0 | 0.0 | 0.00 | 0.00 | 0.00 | 66 | 1014.3 |
| 20260505235003 | 60 | 198 | 0.0 | 0.9 | 0.00 | 0.00 | 0.00 | 66 | 1014.2 |
| 20260505234500 | 61 | 198 | 0.0 | 0.9 | 0.00 | 0.00 | 0.00 | 66 | 1014.3 |
| 20260505233503 | 61 | 244 | 0.0 | 0.0 | 0.00 | 0.00 | 0.00 | 66 | 1014.2 |
| 20260505232959 | 61 | 244 | 0.0 | 0.0 | 0.00 | 0.00 | 0.00 | 66 | 1014.3 |
| 20260505232500 | 61 | 244 | 0.0 | 0.0 | 0.00 | 0.00 | 0.00 | 66 | 1014.2 |
| 20260505232000 | 61 | 244 | 0.0 | 0.9 | 0.00 | 0.00 | 0.00 | 66 | 1014.3 |
| 20260505231500 | 61 | 244 | 0.0 | 1.7 | 0.00 | 0.00 | 0.00 | 66 | 1014.2 |
| 20260505231000 | 61 | 257 | 0.9 | 1.7 | 0.00 | 0.00 | 0.00 | 65 | 1014.2 |
| 20260505230503 | 61 | 257 | 0.9 | 1.7 | 0.00 | 0.00 | 0.00 | 65 | 1014.3 |
| 20260505230003 | 61 | 257 | 0.9 | 1.7 | 0.00 | 0.00 | 0.00 | 64 | 1014.4 |
| 20260505225503 | 62 | 257 | 0.9 | 1.7 | 0.00 | 0.00 | 0.00 | 64 | 1014.3 |
| 20260505225000 | 62 | 355 | 1.7 | 4.3 | 0.00 | 0.00 | 0.00 | 64 | 1014.4 |
| 20260505224003 | 62 | 27 | 2.6 | 5.2 | 0.00 | 0.00 | 0.00 | 64 | 1014.3 |
| 20260505223002 | 62 | 5 | 1.7 | 4.3 | 0.00 | 0.00 | 0.00 | 63 | 1014.5 |
| 20260505222500 | 63 | 348 | 1.7 | 3.5 | 0.00 | 0.00 | 0.00 | 63 | 1014.5 |
| 20260505222003 | 63 | 11 | 2.6 | 4.3 | 0.00 | 0.00 | 0.00 | 62 | 1014.5 |
| 20260505221500 | 63 | 350 | 3.5 | 8.7 | 0.00 | 0.00 | 0.00 | 63 | 1014.5 |
| 20260505221002 | 62 | 338 | 3.5 | 8.7 | 0.00 | 0.00 | 0.00 | 63 | 1014.5 |
| 20260505220503 | 62 | 17 | 3.5 | 7.0 | 0.00 | 0.00 | 0.00 | 63 | 1014.5 |
| 20260505220008 | 62 | 355 | 2.6 | 5.2 | 0.00 | 0.00 | 0.00 | 63 | 1014.5 |
| 20260505215503 | 62 | 22 | 1.7 | 4.3 | 0.00 | 0.00 | 0.00 | 63 | 1014.5 |
| 20260505215003 | 62 | 350 | 0.9 | 2.6 | 0.00 | 0.00 | 0.00 | 62 | 1014.6 |
| 20260505214503 | 62 | 355 | 0.9 | 2.6 | 0.00 | 0.00 | 0.00 | 62 | 1014.6 |
| 20260505214003 | 62 | 19 | 0.0 | 1.7 | 0.00 | 0.00 | 0.00 | 61 | 1014.6 |
| 20260505213003 | 63 | 313 | 0.9 | 1.7 | 0.00 | 0.00 | 0.00 | 58 | 1014.6 |
| 20260505212502 | 63 | 293 | 1.7 | 5.2 | 0.00 | 0.00 | 0.00 | 57 | 1014.7 |
| 20260505212003 | 64 | 280 | 1.7 | 6.1 | 0.00 | 0.00 | 0.00 | 56 | 1014.6 |
| 20260505210503 | 65 | 296 | 1.7 | 4.3 | 0.00 | 0.00 | 0.00 | 54 | 1014.5 |
| 20260505210003 | 65 | 282 | 2.6 | 7.8 | 0.00 | 0.00 | 0.00 | 53 | 1014.5 |
| 20260505205503 | 65 | 284 | 3.5 | 7.8 | 0.00 | 0.00 | 0.00 | 52 | 1014.5 |
| 20260505205000 | 66 | 277 | 3.5 | 7.8 | 0.00 | 0.00 | 0.00 | 52 | 1014.4 |
| 20260505204503 | 66 | 289 | 2.6 | 7.0 | 0.00 | 0.00 | 0.00 | 51 | 1014.4 |
| 20260505204003 | 66 | 301 | 2.6 | 8.7 | 0.00 | 0.00 | 0.00 | 50 | 1014.3 |
| 20260505203003 | 66 | 148 | 2.6 | 7.8 | 0.00 | 0.00 | 0.00 | 49 | 1014.0 |
| 20260505202503 | 66 | 292 | 1.7 | 7.0 | 0.00 | 0.00 | 0.00 | 49 | 1014.0 |
| 20260505202003 | 66 | 277 | 0.9 | 7.8 | 0.00 | 0.00 | 0.00 | 48 | 1013.9 |
| 20260505201503 | 66 | 347 | 0.9 | 7.8 | 0.00 | 0.00 | 0.00 | 48 | 1013.9 |
| 20260505200503 | 66 | 276 | 0.9 | 6.1 | 0.00 | 0.00 | 0.00 | 49 | 1013.6 |
| 20260505200004 | 66 | 276 | 0.9 | 6.1 | 0.00 | 0.00 | 0.00 | 50 | 1013.6 |
| 20260505195503 | 66 | 306 | 0.9 | 4.3 | 0.00 | 0.00 | 0.00 | 51 | 1013.4 |
| 20260505195003 | 66 | 220 | 0.9 | 4.3 | 0.00 | 0.00 | 0.00 | 52 | 1013.5 |
| 20260505194503 | 66 | 306 | 2.6 | 7.8 | 0.00 | 0.00 | 0.00 | 54 | 1013.4 |
| 20260505193503 | 68 | 265 | 2.6 | 6.1 | 0.00 | 0.00 | 0.00 | 50 | 1013.5 |
| 20260505193003 | 69 | 294 | 1.7 | 4.3 | 0.00 | 0.00 | 0.00 | 45 | 1013.2 |
| 20260505192503 | 69 | 236 | 0.9 | 2.6 | 0.00 | 0.00 | 0.00 | 44 | 1013.1 |
| 20260505192003 | 70 | 249 | 0.9 | 1.7 | 0.00 | 0.00 | 0.00 | 43 | 1012.9 |
| 20260505191504 | 71 | 14 | 0.0 | 1.7 | 0.00 | 0.00 | 0.00 | 43 | 1012.8 |
| 20260505190503 | 72 | 14 | 0.9 | 2.6 | 0.00 | 0.00 | 0.00 | 38 | 1012.6 |
| 20260505185500 | 72 | 21 | 0.9 | 3.5 | 0.00 | 0.00 | 0.00 | 39 | 1012.5 |
| 20260505185002 | 72 | 23 | 0.0 | 1.7 | 0.00 | 0.00 | 0.00 | 39 | 1012.5 |
| 20260505184503 | 71 | 66 | 0.0 | 0.9 | 0.00 | 0.00 | 0.00 | 39 | 1012.4 |
| 20260505184003 | 71 | 66 | 0.0 | 0.9 | 0.00 | 0.00 | 0.00 | 40 | 1012.4 |
| 20260505183503 | 71 | 66 | 0.9 | 2.6 | 0.00 | 0.00 | 0.00 | 40 | 1012.4 |
| 20260505183003 | 72 | 66 | 1.7 | 3.5 | 0.00 | 0.00 | 0.00 | 41 | 1012.3 |
| 20260505182503 | 72 | 64 | 2.6 | 3.5 | 0.00 | 0.00 | 0.00 | 41 | 1012.3 |
| 20260505182003 | 72 | 67 | 3.5 | 4.3 | 0.00 | 0.00 | 0.00 | 41 | 1012.3 |
| 20260505181503 | 72 | 66 | 3.5 | 4.3 | 0.00 | 0.00 | 0.00 | 41 | 1012.2 |
| 20260505180503 | 72 | 66 | 2.6 | 3.5 | 0.00 | 0.00 | 0.00 | 41 | 1012.1 |
| 20260505180004 | 73 | 64 | 2.6 | 3.5 | 0.00 | 0.00 | 0.00 | 41 | 1012.2 |
| 20260505175503 | 73 | 65 | 2.6 | 3.5 | 0.00 | 0.00 | 0.00 | 41 | 1012.2 |
| 20260505175003 | 73 | 67 | 2.6 | 3.5 | 0.00 | 0.00 | 0.00 | 41 | 1012.1 |
| 20260505174503 | 73 | 67 | 2.6 | 3.5 | 0.00 | 0.00 | 0.00 | 41 | 1012.1 |
| 20260505174003 | 73 | 66 | 2.6 | 4.3 | 0.00 | 0.00 | 0.00 | 41 | 1012.0 |
| 20260505173503 | 73 | 71 | 3.5 | 4.3 | 0.00 | 0.00 | 0.00 | 41 | 1012.0 |
| 20260505173004 | 73 | 69 | 3.5 | 4.3 | 0.00 | 0.00 | 0.00 | 41 | 1011.9 |
| 20260505172503 | 74 | 70 | 3.5 | 4.3 | 0.00 | 0.00 | 0.00 | 42 | 1011.9 |
| 20260505172003 | 74 | 78 | 3.5 | 4.3 | 0.00 | 0.00 | 0.00 | 42 | 1011.9 |
| 20260505171502 | 74 | 78 | 3.5 | 5.2 | 0.00 | 0.00 | 0.00 | 42 | 1011.9 |
| 20260505170503 | 74 | 74 | 3.5 | 6.1 | 0.00 | 0.00 | 0.00 | 42 | 1011.8 |
| 20260505170000 | 74 | 81 | 3.5 | 6.1 | 0.00 | 0.00 | 0.00 | 42 | 1011.7 |
| 20260505165003 | 75 | 84 | 3.5 | 6.1 | 0.00 | 0.00 | 0.00 | 41 | 1011.8 |
| 20260505164504 | 75 | 78 | 3.5 | 5.2 | 0.00 | 0.00 | 0.00 | 41 | 1011.9 |
| 20260505164003 | 75 | 75 | 3.5 | 4.3 | 0.00 | 0.00 | 0.00 | 40 | 1011.9 |
| 20260505163503 | 75 | 84 | 2.6 | 4.3 | 0.00 | 0.00 | 0.00 | 40 | 1012.0 |
| 20260505163003 | 76 | 72 | 1.7 | 3.5 | 0.00 | 0.00 | 0.00 | 40 | 1012.1 |
| 20260505162503 | 76 | 68 | 1.7 | 2.6 | 0.00 | 0.00 | 0.00 | 40 | 1012.1 |
| 20260505162004 | 76 | 74 | 1.7 | 2.6 | 0.00 | 0.00 | 0.00 | 40 | 1012.1 |
| 20260505161003 | 77 | 83 | 0.9 | 2.6 | 0.00 | 0.00 | 0.00 | 37 | 1012.2 |
| 20260505160504 | 78 | 83 | 1.7 | 3.5 | 0.00 | 0.00 | 0.00 | 37 | 1012.1 |
| 20260505152503 | 79 | 148 | 1.7 | 4.3 | 0.00 | 0.00 | 0.00 | 35 | 1012.5 |
| 20260505152003 | 79 | 167 | 3.5 | 7.0 | 0.00 | 0.00 | 0.00 | 35 | 1012.5 |
| 20260505151503 | 80 | 94 | 4.3 | 7.0 | 0.00 | 0.00 | 0.00 | 34 | 1012.6 |
| 20260505151003 | 80 | 90 | 3.5 | 7.0 | 0.00 | 0.00 | 0.00 | 34 | 1012.5 |
| 20260505150503 | 80 | 91 | 1.7 | 7.0 | 0.00 | 0.00 | 0.00 | 35 | 1012.6 |
| 20260505125002 | 81 | 126 | 1.7 | 3.5 | 0.00 | 0.00 | 0.00 | 34 | 1014.3 |
| 20260505124502 | 81 | 90 | 1.7 | 3.5 | 0.00 | 0.00 | 0.00 | 35 | 1014.4 |
| 20260505124003 | 82 | 132 | 1.7 | 3.5 | 0.00 | 0.00 | 0.00 | 33 | 1014.3 |
| 20260505123503 | 82 | 255 | 1.7 | 3.5 | 0.00 | 0.00 | 0.00 | 36 | 1014.5 |
| 20260505123003 | 82 | 286 | 1.7 | 3.5 | 0.00 | 0.00 | 0.00 | 36 | 1014.5 |
| 20260505122503 | 82 | 304 | 1.7 | 6.1 | 0.00 | 0.00 | 0.00 | 38 | 1014.7 |
| 20260505122003 | 82 | 260 | 0.9 | 4.3 | 0.00 | 0.00 | 0.00 | 37 | 1014.8 |
| 20260505121003 | 83 | 238 | 1.7 | 3.5 | 0.00 | 0.00 | 0.00 | 31 | 1014.8 |
| 20260505120500 | 83 | 288 | 0.9 | 3.5 | 0.00 | 0.00 | 0.00 | 35 | 1015.0 |
| 20260505115503 | 83 | 237 | 2.6 | 6.1 | 0.00 | 0.00 | 0.00 | 35 | 1015.0 |
| 20260505115003 | 82 | 211 | 1.7 | 4.3 | 0.00 | 0.00 | 0.00 | 36 | 1015.1 |
| 20260505114501 | 81 | 232 | 1.7 | 4.3 | 0.00 | 0.00 | 0.00 | 36 | 1015.0 |
| 20260505114003 | 81 | 232 | 1.7 | 4.3 | 0.00 | 0.00 | 0.00 | 37 | 1015.1 |
| 20260505113503 | 81 | 76 | 0.9 | 2.6 | 0.00 | 0.00 | 0.00 | 33 | 1015.2 |
| 20260505113003 | 81 | 123 | 0.9 | 3.5 | 0.00 | 0.00 | 0.00 | 33 | 1015.2 |
| 20260505112003 | 81 | 65 | 1.7 | 6.1 | 0.00 | 0.00 | 0.00 | 34 | 1015.2 |
| 20260505111501 | 81 | 161 | 1.7 | 5.2 | 0.00 | 0.00 | 0.00 | 35 | 1015.3 |
| 20260505111003 | 81 | 340 | 2.6 | 6.1 | 0.00 | 0.00 | 0.00 | 34 | 1015.3 |
| 20260505110503 | 81 | 245 | 2.6 | 6.1 | 0.00 | 0.00 | 0.00 | 37 | 1015.3 |
| 20260505102003 | 78 | 208 | 1.7 | 5.2 | 0.00 | 0.00 | 0.00 | 41 | 1015.6 |
| 20260505101503 | 78 | 194 | 1.7 | 3.5 | 0.00 | 0.00 | 0.00 | 42 | 1015.6 |
| 20260505101004 | 78 | 121 | 1.7 | 5.2 | 0.00 | 0.00 | 0.00 | 42 | 1015.6 |
| 20260505100503 | 78 | 236 | 1.7 | 4.3 | 0.00 | 0.00 | 0.00 | 45 | 1015.7 |
| 20260505100005 | 77 | 215 | 1.7 | 6.1 | 0.00 | 0.00 | 0.00 | 46 | 1015.7 |
| 20260505095503 | 77 | 329 | 2.6 | 5.2 | 0.00 | 0.00 | 0.00 | 43 | 1015.9 |
| 20260505095003 | 77 | 270 | 1.7 | 7.0 | 0.00 | 0.00 | 0.00 | 46 | 1015.9 |